Regional Weather Roundup
Issued by NWS

Home | Current Version | Previous Version | Graphics & Text | Print | Product List | Glossary On
Versions: 1 2 3 4 5 6 7 8 9 10 11 12 13 14 15 16 17 18 19 20 21 22 23 24 25 26 27 28 29 30 31 32 33 34 35 36 37 38 39 40 41 42 43 44 45 46 47 48 49 50
000
ASUS43 KMPX 250701
RWRMN
WEATHER ROUNDUP FOR MINNESOTA
NATIONAL WEATHER SERVICE TWIN CITIES/CHANHASSEN MN
200 AM CDT TUE JUL 25 2017


NOTE: "FAIR" INDICATES FEW OR NO CLOUDS BELOW 12,000 FEET WITH NO
SIGNIFICANT WEATHER AND/OR OBSTRUCTIONS TO VISIBILITY. N/A MEANS
CURRENT SKY AND/OR WEATHER CONDITIONS ARE NOT AVAILABLE.

MNZ060>063-068>070-250800-
   Twin Cities Metro

CITY           SKY/WX    TMP DP  RH WIND       PRES   REMARKS
TWIN CITIES    LGT RAIN  68  60  75 S12       30.05R
ST PAUL        LGT RAIN  66  63  90 SE14      30.04S
CRYSTAL        FAIR      69  58  67 S10       30.02S
BLAINE         LGT RAIN  70  61  73 S17       30.03F
LAKEVILLE      FAIR      63  63 100 SE5       30.06R
EDEN PRAIRIE   FAIR      69  60  73 S9        30.04R
SOUTH ST PAUL  MOCLDY    67  60  78 SE7       30.06R
LAKE ELMO      FAIR      64  61  88 S3        30.08R
$$
MNZ001>005-007-008-013>017-022>024-027-028-250800-
   Northwest Minnesota

CITY           SKY/WX    TMP DP  RH WIND       PRES   REMARKS
BEMIDJI        FAIR      64  60  87 S9        29.97R
HALLOCK        FAIR      66  63  88 S13       29.84S
ROSEAU         FAIR      64  61  88 S9        29.89F
WARROAD        FAIR      64  61  88 S6        29.91F
CROOKSTON      FAIR      66  63  88 S10       29.89R
FOSSTON        FAIR      64  61  88 S9G17     29.93F
DETROIT LAKES  FAIR      64  63  94 SE12      29.94F
MOORHEAD       FAIR      70  63  78 S20G25    29.89S
PARK RAPIDS    FAIR      66  61  84 S12       29.99S
MAHNOMEN       FAIR      66  62  85 S9G17     29.90F
$$
MNZ006-009>011-018-025>026-250800-
   North Central Minnesota

CITY           SKY/WX    TMP DP  RH WIND       PRES   REMARKS
BAUDETTE       FAIR      62  60  93 S8        29.93S
FLAG ISLAND    FAIR      70  64  83 S12G18    29.89S HAZE
INTL FALLS     FAIR      60  56  86 SE7       29.96F
WASKISH        FAIR      63  61  94 S3        29.96R
BIG FORK       FAIR      63  59  88 SE6       30.00S
LONGVILLE      FAIR      61  59  94 SE6       29.99F
GRAND RAPIDS   FAIR      59  58  96 CALM      30.04F
CRANE LAKE     FAIR      55  54  94 CALM      30.03S
ORR            FAIR      57  54  88 SE6       29.99F
COOK           FAIR      57  55  94 CALM      30.03F
WALKER         FAIR      64  60  84 S6        29.99R
$$
MNZ012-019>021-037-250800-
   Northeast Minnesota

CITY           SKY/WX    TMP DP  RH WIND       PRES   REMARKS
DULUTH         FAIR      59  56  89 S3        30.07R
ELY            FAIR      55  50  82 SE3       30.05S
HIBBING        FAIR      54  54 100 CALM      30.05R
EVELETH        FAIR      53  49  87 CALM      30.06S
DULUTH HARBOR  FAIR      63  61  94 NE8       30.06R
TWO HARBORS    FAIR      55  52  88 CALM      30.05S
GRAND MARAIS     N/A     52  50  93 CALM      30.05F
G MARAIS ARPRT FAIR      57  43  58 CALM      30.09F
$$
MNZ029>031-032-039>041-046>048-054>057-064-250800-
   West Central Minnesota

CITY           SKY/WX    TMP DP  RH WIND       PRES   REMARKS
FERGUS FALLS   FAIR      66  63  88 S16       29.93F
WHEATON        FAIR      68  63  83 SE9       29.94F THUNDER
ALEXANDRIA     MOCLDY    68  63  84 S12       30.00R
ELBOW LAKE     FAIR      66  63  90 SE13      29.96F
WADENA         FAIR      63  61  94 SE5       29.99R
GLENWOOD       FAIR      66  63  88 SE10      29.99F THUNDER
APPLETON       FAIR      72  63  73 SE7       29.95S THUNDER
BENSON         FAIR      70  63  78 S10       29.98S
ORTONVILLE     TSTM      68  64  88 MISG      29.95R
MADISON        LGT RAIN  72  64  78 SE15      29.93F
WILLMAR        FAIR      70  63  78 SE13G20   30.02
$$
MNZ033>034-036-042>043-049>051-058-059-250800-
   Central Minnesota

CITY           SKY/WX    TMP DP  RH WIND       PRES   REMARKS
ST CLOUD       FAIR      68  62  81 S7        30.02R
SAUK CENTRE    PTSUNNY   65  63  93 SE7       30.00S
PAYNESVILLE    FAIR      69  62  79 S10       30.02S
AITKIN         FAIR      63  59  88 SE6       30.00F
PINE RIVER     FAIR      61  59  94 SE5       30.02F
BRAINERD       FAIR      61  59  93 S6        30.01F
STAPLES        FAIR      63  59  88 SE3       29.99F
LONG PRAIRIE   MOCLDY    64  61  88 SE8       30.00F
LITTLE FALLS   MOCLDY    66  59  77 SE8       30.01F
LITCHFIELD     FAIR      70  64  83 SE7       30.02R THUNDER
BUFFALO        FAIR      67  60  78 SE10G16   30.02F
MAPLE LAKE     FAIR      68  64  85 S5        30.03F
HUTCHINSON     FAIR      68  64  87 SE9       30.03S THUNDER
$$
MNZ037-044-045-052-053-250800-
   East Central Minnesota

CITY           SKY/WX    TMP DP  RH WIND       PRES   REMARKS
PRINCETON      FAIR      70  63  78 S5        30.04R
MORA           LGT RAIN  64  59  82 S3        30.06R
CAMBRIDGE      FAIR      70  57  64 SE3       30.03R
RUSH CITY      RAIN      65  60  84 S3        30.05R
MOOSE LAKE     FAIR      63  57  82 CALM      30.04R
HINCKLEY       FAIR      64  61  88 S5        30.05R
CLOQUET        FAIR      57  54  88 CALM      30.07R
MCGREGOR       FAIR      63  59  88 SE6       30.04S
$$
MNZ071>073-080-081-089-090-097-098-250800-
   Southwest Minnesota

CITY           SKY/WX    TMP DP  RH WIND       PRES   REMARKS
MONTEVIDEO     MOCLDY    70  64  83 SE14G23   29.97F
GRANITE FALLS  MOCLDY    68  65  90 S22G31    29.94F
CANBY          TSTM      72  65  80 SE17      29.98R
MARSHALL       FAIR      69  64  84 SE14      29.98F
REDWOOD FALLS  FAIR      68  62  81 S16       29.97F
OLIVIA         FAIR      70  63  78 SE13G18   29.97F
PIPESTONE      FAIR      70  63  78 S9        29.98S THUNDER
WINDOM         FAIR      70  61  73 SE12G17   30.02F THUNDER
WORTHINGTON    FAIR      68  62  81 SE7       30.02R
JACKSON        FAIR      64  61  88 SE8       30.04R THUNDER
TRACY          FAIR      68  65  90 SE6       30.01S
SLAYTON        FAIR      66  62  87 SE9       30.01F
$$
MNZ065>067-074>077-082>085-091>093-250800-
   South Central Minnesota

CITY           SKY/WX    TMP DP  RH WIND       PRES   REMARKS
MANKATO        FAIR      66  62  87 SE14      30.04F
NEW ULM        FAIR      66  63  88 SE9       30.03R
ST JAMES       FAIR      66  63  88 SE8G16    30.03F THUNDER
FAIRMONT       FAIR      66  63  90 SE10      30.04R
GLENCOE        FAIR      68  65  90 SE8       30.02F
FARIBAULT      FAIR      66  61  82 SE10      30.06F
OWATONNA       FAIR      64  61  88 SE8       30.07S
WASECA         FAIR      63  59  88 SE9       30.06F
ALBERT LEA     FAIR      66  61  82 S9        30.08R
$$
MNZ078>079-086>088-094>096-250800-
   Southeast Minnesota

CITY           SKY/WX    TMP DP  RH WIND       PRES   REMARKS
ROCHESTER      FAIR      60  59  96 SE8       30.10R
RED WING       FAIR      66  57  72 S8        30.08R
STANTON        FAIR      65  59  81 SE10G16   30.05F
DODGE CENTER   FAIR      61  57  88 S5        30.10R
WINONA         FAIR      63  57  82 SE5       30.09F
AUSTIN         FAIR      63  57  82 S3        30.08S
PRESTON        FAIR      61  57  87 SE7       30.11S
$$
ABBREVIATIONS USED IN REMARKS
   TC - TEMPERATURES IN CELSIUS
  WCI - WIND CHILL INDEX
   HX - HEAT INDEX
  VSB - VISIBILITY
$$




USA.gov is the U.S. government's official web portal to all federal, state and local government web resources and services.